Home   Weather   Sochi   Past weeks

Flag for Russia Past Weather in Sochi, Russia — Yesterday and Last 2 Weeks

Now
34 °F

Clear.


Feels Like: 25 °F
Forecast: 39 / 48 °F
Wind: 13 mph from East

Location: Adler

Current Time: Jan 24, 2017 at 4:25:59 am

Latest Report: Jan 24, 2017 at 3:30 am


Visibility: N/A

Pressure: 30.36 "Hg

Humidity: 81%

Dew Point: 28 °F

Location of SochiLocation

Past Weather in Sochi — Graph

°F

Sochi Temperature Yesterday

Maximum temperature yesterday: 46 °F (at 11:30 am)
Minimum temperature yesterday: 34 °F (at 8:30 pm)
Average temperature yesterday: 39 °F

High & Low Weather Summary for the Past Weeks

 TemperatureHumidityPressure
High57 °F (Jan 12, 1:00 pm)100% (Jan 19, 8:30 pm)30.54 "Hg (Jan 19, 8:30 pm)
Low32 °F (Jan 14, 7:30 am)31% (Jan 12, 1:30 pm)29.83 "Hg (Jan 9, 3:00 am)
Average43 °F74%30.18 "Hg
* Reported Jan 9 3:00 am — Jan 24 3:00 am, Sochi, Weather by CustomWeather, © 2017

Note: Actual official high and low records may vary slightly from our data, if they occured in-between our weather recording intervals... More about our weather records

Advertising

Sochi Weather History for the Previous 24 Hours

Scroll right to see more
 ConditionsComfort  
Time TempWeatherWind HumidityBarometerVisibility
3:00 am
Tue, Jan 24
34 °FClear.13 mph81%30.39 "HgN/A
2:30 am34 °FClear.13 mph81%30.39 "HgN/A
2:00 am34 °FClear.13 mph81%30.39 "HgN/A
1:30 am34 °FClear.10 mph81%30.39 "HgN/A
1:00 am34 °FClear.13 mph81%30.42 "HgN/A
12:30 am34 °FClear.10 mph81%30.42 "HgN/A
12:00 am34 °FClear.10 mph81%30.42 "HgN/A
11:30 pm
Mon, Jan 23
34 °FClear.6 mph81%30.42 "HgN/A
11:00 pm34 °FClear.8 mph81%30.42 "HgN/A
10:30 pm34 °FClear.6 mph87%30.45 "HgN/A
10:00 pm34 °FClear.6 mph87%30.45 "HgN/A
9:30 pm34 °FClear.8 mph87%30.45 "HgN/A
9:00 pm36 °FClear.6 mph81%30.45 "HgN/A
8:30 pm34 °FClear.6 mph87%30.45 "HgN/A
8:00 pm36 °FClear.6 mph81%30.45 "HgN/A
7:30 pm36 °FClear.6 mph81%30.45 "HgN/A
7:00 pm37 °FClear.3 mph75%30.45 "HgN/A
6:30 pm37 °FClear.1 mph75%30.45 "HgN/A
6:00 pm43 °FQuite cool.3 mph57%30.45 "HgN/A
5:30 pm43 °FPassing clouds.6 mph53%30.45 "HgN/A
5:00 pm45 °FPassing clouds.8 mph53%30.45 "HgN/A
4:30 pm45 °FPassing clouds.8 mph53%30.45 "HgN/A
4:00 pm46 °FPassing clouds.10 mph46%30.45 "HgN/A
3:30 pm46 °FPassing clouds.10 mph46%30.45 "HgN/A
3:00 pm46 °FPassing clouds.13 mph50%30.45 "HgN/A
2:30 pm46 °FPassing clouds.10 mph46%30.45 "HgN/A
2:00 pm46 °FPassing clouds.10 mph46%30.48 "HgN/A
1:30 pm46 °FPassing clouds.10 mph46%30.48 "HgN/A
1:00 pm46 °FPassing clouds.8 mph50%30.48 "HgN/A
12:30 pm46 °FPassing clouds.8 mph46%30.51 "HgN/A
12:00 pm46 °FPassing clouds.6 mph46%30.51 "HgN/A
11:30 am46 °FPassing clouds.6 mph46%30.54 "HgN/A
11:00 am45 °FPassing clouds.6 mph61%30.54 "HgN/A
10:30 am43 °FPassing clouds.8 mph66%30.54 "HgN/A
10:00 am41 °FPassing clouds.10 mph70%30.54 "HgN/A
9:30 am39 °FPassing clouds.6 mph81%30.54 "HgN/A
9:00 am36 °FPassing clouds.6 mph93%30.54 "HgN/A
8:30 am36 °FScattered clouds.6 mph87%30.51 "HgN/A
8:00 am36 °FPartly sunny.6 mph93%30.51 "HgN/A
7:30 am36 °FPassing clouds.3 mph93%30.51 "HgN/A
7:00 am37 °FPassing clouds.6 mph87%30.51 "HgN/A
6:30 am36 °FPassing clouds.3 mph87%30.51 "HgN/A
6:00 am37 °FPassing clouds.No wind87%30.51 "HgN/A
5:30 am37 °FOvercast.6 mph87%30.51 "HgN/A
5:00 am37 °FOvercast.8 mph93%30.51 "HgN/A
4:30 am37 °FOvercast.8 mph93%30.51 "HgN/A
4:00 am37 °FOvercast.6 mph93%30.48 "HgN/A
Weather by CustomWeather, © 2017

See weather overviewHow to use our weather pages